Zurück zum Katalog

YINHE 2-06

AktivKommunikationLEO
NORAD 51951·PAYLOAD·🇨🇳 China
Dieser Satellitenname wurde noch nicht durch offizielle Quellen bestätigt.

Gestartet Mar 5, 2022 von Xichang Satellite Launch Center

Loading…

Nächste Überflüge (nächste 24 Stunden)

TLE

AktuellSource: Space-Track

Epoche: Sep 14, 2026, 14:35 UTC

1 51951U 22023F   26257.60827433  .00012354  00000-0  48459-3 0  9993
2 51951  63.4529 329.5147 0135279 341.8205  17.8094 15.17971003251284

Verfolge YINHE 2-06 in Echtzeit mit AllMySat

Download on the App Store